Latest Coastal Weather Observations for Lord Howe Island

IDN60701

Issued at 6:25 am EDT Saturday 22 November 2014 (issued every 10 minutes, with the page automatically refreshed every 10 minutes)

About coastal observations | Map of coastal stations | Coastal observations for NSW | Marine services | Other Formats
Station Details ID: 200839 Name: LORD HOWE ISLAND AERO Lat: -31.54 Lon: 159.08 Height: 5.0 m
Data from the previous 72 hours. | See also: Recent months at Lord Howe Island
Date/Time
EDT
Temp

°C
Wind Pressure Rain
since 9am
mm
Weather Cloud Vis
km
Sea
Height
m
Swell
Dir
 
Speed
knots
Gust
knots
hPa Trend Height
m
Period
s
Dir
22/06:07am 22.3 N 5 9 1017.4 - 0.0 - Partly cloudy 10 - - - -
22/06:00am 22.1 N 5 10 1017.5 R 0.0 Haze Mostly cloudy 15 - - - -
22/05:54am 22.0 N 4 10 1017.6 - 0.0 - Partly cloudy 10 - - - -
22/05:30am 21.8 NW 5 10 1017.2 - 0.0 - Partly cloudy 10 - - - -
22/05:00am 21.8 NNW 4 8 1017.1 - 0.0 - Partly cloudy 10 - - - -
22/04:30am 21.8 N 5 9 1016.7 - 0.0 - Partly cloudy 10 - - - -
22/04:00am 21.8 NW 6 9 1016.5 - 0.0 - Partly cloudy 10 - - - -
22/03:30am 21.8 NNE 6 15 1015.9 - 0.0 - Partly cloudy 10 - - - -
22/03:11am 21.8 NNE 5 11 1015.9 - 0.0 - Partly cloudy 10 - - - -
22/03:01am 21.9 N 5 10 1015.9 - 0.0 - Partly cloudy 10 - - - -
22/03:00am 21.9 N 5 12 1015.9 - 0.0 - Cloudy 10 - - - -
22/02:35am 21.9 N 7 12 1015.8 - 0.0 - Partly cloudy 10 - - - -
22/02:30am 21.9 N 6 14 1015.9 - 0.0 - Partly cloudy 10 - - - -
22/02:13am 21.8 NNW 6 13 1016.1 - 0.0 - Partly cloudy 10 - - - -
22/02:00am 21.8 N 6 20 1016.2 - 0.0 - Partly cloudy 10 - - - -
22/01:56am 21.9 N 6 20 1016.2 - 0.0 - Partly cloudy 10 - - - -
22/01:35am 21.8 NE 7 11 1016.1 - 0.0 - Partly cloudy 10 - - - -
22/01:30am 21.8 NNE 8 13 1016.1 - 0.0 - Partly cloudy 10 - - - -
22/01:15am 21.9 N 8 17 1016.2 - 0.0 - Partly cloudy 10 - - - -
22/01:00am 21.9 NE 5 13 1016.3 - 0.0 - Partly cloudy 10 - - - -
22/12:30am 21.8 NE 7 14 1016.0 - 0.0 - Partly cloudy 10 - - - -
22/12:00am 21.9 NNE 10 17 1016.2 - 0.0 - Cloudy 10 - - - -
 
Date/Time
EDT
Temp

°C
Wind Pressure Rain
since 9am
mm
Weather Cloud Vis
km
Sea
Height
m
Swell
Dir
 
Speed
knots
Gust
knots
hPa Trend Height
m
Period
s
Dir
21/11:43pm 21.9 NNE 10 19 1016.6 - 0.0 - Partly cloudy 10 - - - -
21/11:33pm 22.0 NNE 8 12 1016.8 - 0.0 - Partly cloudy 10 - - - -
21/11:30pm 21.9 NNE 7 14 1016.8 - 0.0 - Partly cloudy 10 - - - -
21/11:00pm 22.0 NNE 9 17 1017.0 - 0.0 - Partly cloudy 10 - - - -
21/10:30pm 22.0 NNE 10 18 1016.8 - 0.0 - Partly cloudy 10 - - - -
21/10:20pm 22.0 NNE 9 18 1017.0 - 0.0 - Partly cloudy 10 - - - -
21/10:00pm 22.1 N 10 19 1016.9 - 0.0 - Partly cloudy 10 - - - -
21/09:30pm 22.0 NNE 11 27 1016.6 - 0.0 - - 10 - - - -
21/09:00pm 22.1 NNE 10 19 1016.4 - 0.0 - - 10 - - - -
21/08:30pm 22.1 NNE 11 17 1016.4 - 0.0 - - 10 - - - -
21/08:00pm 22.1 NNE 11 24 1016.7 - 0.0 - - 10 - - - -
21/07:30pm 22.1 N 7 14 1016.9 - 0.0 - - 10 - - - -
21/07:00pm 22.1 NNE 6 10 1017.2 - 0.0 - - 10 - - - -
21/06:30pm 22.4 NNE 4 7 1017.2 - 0.0 - Partly cloudy 10 - - - -
21/06:00pm 23.0 N 5 10 1017.1 - 0.0 - Mostly cloudy 10 - - - -
21/05:30pm 23.3 N 6 11 1017.1 - 0.0 - Partly cloudy 10 - - - -
21/05:16pm 23.2 NNW 6 13 1017.2 - 0.0 - Partly cloudy 10 - - - -
21/05:00pm 23.5 N 8 13 1017.1 - 0.0 - Partly cloudy 10 - - - -
21/04:56pm 23.9 N 7 12 1017.0 - 0.0 - Partly cloudy 10 - - - -
21/04:30pm 23.6 NNW 7 13 1016.9 - 0.0 - Partly cloudy 10 - - - -
21/04:00pm 23.3 NNW 8 14 1016.7 - 0.0 - Partly cloudy 10 - - - -
21/03:30pm 23.8 NNW 9 17 1016.5 - 0.0 - Partly cloudy 10 - - - -
21/03:00pm 23.8 NNW 10 18 1016.7 F 0.0 Haze Mostly cloudy 15 - - - -
21/02:30pm 24.4 NNW 8 16 1016.9 - 0.0 - Partly cloudy 10 - - - -
21/02:00pm 24.1 NNW 10 17 1017.3 - 0.0 - Partly cloudy 10 - - - -
21/01:30pm 24.7 N 8 14 1017.3 - 0.0 - Partly cloudy 10 - - - -
21/01:00pm 24.1 NNE 8 18 1017.9 - 0.0 - Partly cloudy 10 - - - -
21/12:30pm 24.7 NNE 8 19 1018.0 - 0.0 - Partly cloudy 10 - - - -
21/12:00pm 24.7 N 7 13 1018.4 - 0.0 - Partly cloudy 10 - - - -
21/11:30am 23.7 N 9 13 1018.8 - 0.0 - Partly cloudy 10 - - - -
21/11:00am 23.7 NNW 8 21 1018.9 - 0.0 - Partly cloudy 10 - - - -
21/10:30am 23.4 NNE 9 17 1019.1 - 0.0 - Partly cloudy 10 - - - -
21/10:00am 23.6 N 9 20 1019.3 - 0.0 - Partly cloudy 10 - - - -
21/09:30am 23.5 N 7 11 1019.3 - 0.0 - Partly cloudy 10 - - - -
21/09:00am 23.6 NNE 7 15 1019.4 F 0.0 Haze Cloudy 15 - - - -
21/08:30am 23.0 N 12 24 1019.3 - 0.0 - - 10 - - - -
21/08:00am 22.8 NNE 12 22 1019.0 - 0.0 - Partly cloudy 10 - - - -
21/07:30am 22.3 N 11 16 1018.8 - 0.0 - Partly cloudy 10 - - - -
21/07:00am 22.0 N 12 26 1018.7 - 0.0 - Partly cloudy 10 - - - -
21/06:30am 22.1 NNE 12 19 1018.7 - 0.0 - Partly cloudy 10 - - - -
21/06:00am 21.8 N 11 18 1018.6 F 0.0 Fine Partly cloudy 15 - - - -
21/05:30am 21.4 NNE 12 19 1018.6 - 0.0 - Partly cloudy 10 - - - -
21/05:00am 21.3 N 11 22 1018.5 - 0.0 - Partly cloudy 10 - - - -
21/04:30am 21.4 N 11 19 1018.2 - 0.0 - - 10 - - - -
21/04:00am 21.3 NNE 9 22 1018.4 - 0.0 - - 10 - - - -
21/03:30am 21.4 N 10 25 1018.5 - 0.0 - - 10 - - - -
21/03:00am 21.4 NNE 9 18 1018.7 - 0.0 - - 10 - - - -
21/02:30am 21.4 NNE 10 22 1018.8 - 0.0 - - 10 - - - -
21/02:00am 21.6 NNE 9 21 1019.0 - 0.0 - - 10 - - - -
21/01:30am 21.5 NNE 9 13 1019.3 - 0.0 - - 10 - - - -
21/01:00am 21.5 N 11 19 1019.7 - 0.0 - - 10 - - - -
21/12:30am 21.5 N 11 19 1020.0 - 0.0 - - 10 - - - -
21/12:00am 21.5 NNE 11 19 1020.2 - 0.0 - - 10 - - - -
 
Date/Time
EDT
Temp

°C
Wind Pressure Rain
since 9am
mm
Weather Cloud Vis
km
Sea
Height
m
Swell
Dir
 
Speed
knots
Gust
knots
hPa Trend Height
m
Period
s
Dir
20/11:30pm 21.5 N 10 18 1020.7 - 0.0 - - 10 - - - -
20/11:00pm 21.8 N 9 16 1020.8 - 0.0 - - 10 - - - -
20/10:30pm 21.8 N 11 19 1020.8 - 0.0 - Partly cloudy 10 - - - -
20/10:00pm 21.8 N 9 17 1020.9 - 0.0 - - 10 - - - -
20/09:30pm 21.7 NNE 10 14 1020.7 - 0.0 - Partly cloudy 10 - - - -
20/09:00pm 21.8 N 10 13 1020.7 - 0.0 - - 10 - - - -
20/08:30pm 21.8 N 8 13 1020.3 - 0.0 - Partly cloudy 10 - - - -
20/08:00pm 21.8 NNE 9 13 1019.9 - 0.0 - Partly cloudy 10 - - - -
20/07:30pm 21.9 NNE 8 17 1019.4 - 0.0 - Partly cloudy 10 - - - -
20/07:00pm 22.0 NNE 9 18 1019.1 - 0.0 - Partly cloudy 10 - - - -
20/06:30pm 22.3 N 10 17 1018.6 - 0.0 - Partly cloudy 10 - - - -
20/06:00pm 22.7 N 8 16 1018.3 - 0.0 - Mostly clear 10 - - - -
20/05:30pm 22.8 NNE 9 16 1018.3 - 0.0 - Partly cloudy 10 - - - -
20/05:00pm 23.2 NNE 10 19 1018.3 - 0.0 - Partly cloudy 10 - - - -
20/04:30pm 23.6 NNE 9 18 1018.8 - 0.0 - Partly cloudy 10 - - - -
20/04:00pm 24.0 NNE 10 20 1019.1 - 0.0 - Partly cloudy 10 - - - -
20/03:30pm 23.7 NNE 10 19 1019.2 - 0.0 - Partly cloudy 10 - - - -
20/03:00pm 24.1 NE 11 18 1019.4 F 0.0 Fine Mostly clear 28 - - - -
20/02:30pm 24.6 NNE 13 24 1019.8 - 0.0 - Mostly clear 10 - - - -
20/02:00pm 24.9 NNE 12 19 1020.1 - 0.0 - Mostly clear 10 - - - -
20/01:30pm 25.4 N 8 14 1020.4 - 0.0 - Mostly clear 10 - - - -
20/01:00pm 24.3 N 8 13 1020.7 - 0.0 - Mostly clear 10 - - - -
20/12:30pm 24.7 NNE 7 13 1021.0 - 0.0 - Mostly clear 10 - - - -
20/12:00pm 24.8 N 7 16 1021.1 F 0.0 Fine Partly cloudy 25 - - - -
20/11:30am 24.4 NNE 13 22 1021.0 - 0.0 - Mostly clear 10 - - - -
20/11:00am 24.8 NNE 10 17 1021.2 - 0.0 - Mostly clear 10 - - - -
20/10:30am 24.9 NNE 11 17 1021.5 - 0.0 - Mostly clear 10 - - - -
20/10:00am 24.4 N 8 14 1021.8 - 0.0 - Mostly clear 10 - - - -
20/09:30am 24.0 N 10 17 1022.0 - 0.0 - Mostly clear 10 - - - -
20/09:00am 24.0 N 8 14 1021.6 F 0.0 Fine Partly cloudy 30 - - - -
20/08:30am 23.2 NNW 9 14 1021.5 - 0.0 - Mostly clear 10 - - - -
20/08:00am 23.7 N 6 11 1021.4 - 0.0 - Mostly clear 10 - - - -
20/07:30am 22.9 N 8 13 1021.3 - 0.0 - Mostly clear 10 - - - -
20/07:00am 22.5 N 7 10 1021.1 - 0.0 - Mostly clear 10 - - - -
20/06:30am 22.2 N 5 8 1021.1 - 0.0 - Mostly clear 10 - - - -
20/06:00am 21.8 N 4 6 1021.0 R 0.0 Fine Mostly clear 30 - - - -
20/05:30am 21.4 N 5 9 1020.8 - 0.0 - Partly cloudy 10 - - - -
20/05:00am 21.3 NNW 3 8 1020.3 - 0.0 - Partly cloudy 10 - - - -
20/04:30am 21.1 N 4 7 1020.0 - 0.0 - Partly cloudy 10 - - - -
20/04:00am 21.4 N 3 6 1019.9 - 0.0 - Partly cloudy 10 - - - -
20/03:30am 20.7 NE 3 5 1019.9 - 0.0 - Partly cloudy 10 - - - -
20/03:00am 20.6 N 4 7 1019.8 - 0.0 - Mostly clear 10 - - - -
20/02:30am 21.0 N 5 11 1019.6 - 0.0 - Partly cloudy 10 - - - -
20/02:00am 21.3 N 7 11 1019.8 - 0.0 - Partly cloudy 10 - - - -
20/01:30am 21.4 N 7 11 1020.0 - 0.0 - Partly cloudy 10 - - - -
20/01:00am 21.3 N 7 13 1020.3 - 0.0 - - 10 - - - -
20/12:30am 21.1 N 6 10 1020.5 - 0.0 - Partly cloudy 10 - - - -
20/12:00am 21.1 NNE 7 12 1020.7 - 0.0 - Mostly clear 10 - - - -
 
Date/Time
EDT
Temp

°C
Wind Pressure Rain
since 9am
mm
Weather Cloud Vis
km
Sea
Height
m
Swell
Dir
 
Speed
knots
Gust
knots
hPa Trend Height
m
Period
s
Dir
19/11:30pm 21.1 NNE 5 9 1020.7 - 0.0 - - 10 - - - -
19/11:00pm 20.9 NNE 6 13 1020.9 - 0.0 - Partly cloudy 10 - - - -
19/10:30pm 21.0 NNE 9 14 1020.8 - 0.0 - Partly cloudy 10 - - - -
19/10:00pm 21.1 NNE 8 11 1020.9 - 0.0 - Partly cloudy 10 - - - -
19/09:30pm 20.9 NNE 7 10 1020.6 - 0.0 - Partly cloudy 10 - - - -
19/09:00pm 20.8 NNE 8 10 1020.3 - 0.0 - Mostly clear 10 - - - -
19/08:30pm 21.0 NNE 7 9 1020.3 - 0.0 - Cloudy 10 - - - -
19/08:00pm 21.0 N 4 7 1020.1 - 0.0 - Partly cloudy 10 - - - -
19/07:30pm 20.2 N 4 6 1019.9 - 0.0 - - 10 - - - -
19/07:00pm 21.0 NNE 5 8 1020.0 - 0.0 - - 10 - - - -
19/06:30pm 21.5 NNE 6 9 1019.7 - 0.0 - - 10 - - - -
19/06:00pm 22.0 NNE 5 7 1019.5 - 0.0 - - 10 - - - -
19/05:30pm 22.4 NNE 5 7 1019.6 - 0.0 - - 10 - - - -
19/05:00pm 22.5 NNE 6 7 1019.6 - 0.0 - - 10 - - - -
19/04:30pm 23.0 WSW 2 5 1019.5 - 0.0 - - 10 - - - -
19/04:00pm 23.1 WSW 5 7 1019.7 - 0.0 - - 10 - - - -
19/03:30pm 23.4 WSW 5 7 1019.9 - 0.0 - - 10 - - - -
19/03:00pm 23.4 W 6 7 1020.0 F 0.0 Fine Mostly clear 28 - - - -
19/02:30pm 23.5 WSW 5 7 1020.3 - 0.0 - Mostly clear 10 - - - -
19/02:00pm 22.9 WSW 4 6 1020.7 - 0.0 - Mostly clear 10 - - - -
19/01:30pm 23.0 WNW 5 9 1020.9 - 0.0 - Mostly clear 10 - - - -
19/01:00pm 23.3 NNE 7 14 1021.0 - 0.0 - Mostly clear 10 - - - -
19/12:30pm 23.1 NNE 9 12 1021.1 - 0.0 - Mostly clear 10 - - - -
19/12:00pm 23.0 NE 9 11 1021.3 R 0.0 Fine Mostly clear 28 - - - -
19/11:30am 22.7 NNE 8 11 1021.4 - 0.0 - Mostly clear 10 - - - -
19/11:00am 22.6 NNE 9 12 1021.4 - 0.0 - Mostly clear 10 - - - -
19/10:30am 22.6 NNE 8 11 1021.6 - 0.0 - Mostly clear 10 - - - -
19/10:00am 22.3 NE 9 11 1021.4 - 0.0 - Mostly clear 10 - - - -
19/09:30am 22.2 NE 7 10 1021.4 - 0.0 - Mostly clear 10 - - - -
19/09:00am 22.0 NE 8 10 1021.2 R 0.0 Fine Mostly clear 28 - - - -
19/08:30am 21.6 NE 8 10 1021.4 - 0.0 - Mostly clear 10 - - - -
19/08:00am 21.4 NE 6 8 1021.4 - 0.0 - Mostly clear 10 - - - -
19/07:30am 20.9 NE 5 6 1021.4 - 0.0 - Mostly clear 10 - - - -
19/07:00am 20.8 NE 4 6 1021.1 - 0.0 - Mostly clear 10 - - - -
19/06:30am 20.1 NE 5 7 1020.5 - 0.0 - Mostly clear 10 - - - -

Other Formats:

Comma delimited format used in spreadsheet applications
http://www.bom.gov.au/fwo/IDN60701/IDN60701.94995.axf

JavaScript Object Notation format (JSON) in row-major order
http://www.bom.gov.au/fwo/IDN60701/IDN60701.94995.json